Cloud_Cover
9 5 5 38 26 99 100 71 16 28 100 100 100 64 100 100 100 94 91 95 100 100 71 54 36 100 97 98 86 41 99 92 5 5 5 5 3 5 68 56 5 35 83
0 0 5 11 100 35 100 100 100 100 100 100 100 100 100 81 51 85 6 5 96 71 5 5 5 19 100 100 100 90 8 5 2 0 0 0 5 7 85 100 92 43 5
0 0 0 5 49 26 87 85 98 100 100 100 93 8 5 5 5 5 5 10 5 5 9 11 5 5 5 39 93 5 8 18 2 2 3 0 5 10 4 11 0 0 3
0 0 0 1 4 5 8 3 2 17 24 19 5 2 4 2 6 5 5 7 5 5 5 3 5 8 23 5 5 94 96 44 66 2 0 0 0 4 10 10 3 9 3
15 2 0 0 0 5 0 3 0 0 0 6 5 1 0 6 4 5 5 6 5 5 5 6 5 5 5 36 75 68 99 13 99 5 5 0 0 4 5 5 0 1 1
21 8 0 0 0 0 0 1 5 5 16 3 17 6 6 6 3 3 7 5 5 12 5 5 5 12 10 50 98 40 76 42 61 14 5 4 0 0 0 0 8 0 5
22 0 1 0 6 2 0 6 64 5 5 5 5 5 3 5 5 5 10 7 5 5 15 6 5 13 5 22 10 32 97 69 55 100 26 5 12 5 0 0 6 1 1
15 3 0 0 1 8 0 0 5 5 5 5 5 9 5 20 7 9 5 5 81 50 16 7 6 5 28 5 6 92 82 74 100 100 100 77 5 4 5 6 6 4 4
13 9 0 0 8 5 2 4 5 5 13 41 11 5 5 5 5 6 5 5 32 100 100 40 34 65 100 89 11 5 16 100 100 100 100 100 94 5 5 13 10 0 2
14 10 13 0 0 7 1 5 11 6 5 5 5 5 5 10 5 5 100 63 77 6 100 100 100 65 23 90 100 72 5 77 100 100 100 100 100 98 25 71 5 5 0
40 35 11 2 36 0 0 4 1 0 5 5 5 20 61 93 97 99 100 92 32 54 9 14 100 100 100 10 39 100 22 5 85 88 100 100 100 100 100 88 77 5 5
45 60 21 10 9 4 0 9 5 5 5 3 5 38 87 84 100 100 100 100 100 100 100 100 97 100 100 20 19 95 100 4 5 64 92 100 100 100 100 100 40 5 6
2 40 10 6 2 4 5 5 6 8 8 6 5 5 48 80 100 93 46 80 86 86 82 100 82 29 92 73 96 100 100 93 6 34 89 100 100 100 100 100 93 5 5
0 0 1 0 0 4 5 5 5 5 10 23 14 4 13 100 100 100 87 84 43 89 97 94 100 71 98 90 99 100 100 100 100 90 16 83 37 79 100 100 99 100 56
0 3 2 2 0 0 1 5 5 5 0 0 4 10 11 28 92 99 97 28 90 95 100 99 86 100 98 95 100 100 100 100 100 100 100 10 32 58 89 75 93 98 74
68 29 2 0 0 0 0 2 5 0 0 0 2 2 1 5 25 95 100 100 100 84 72 100 51 96 96 99 94 100 50 100 100 100 100 98 6 100 99 97 100 100 100
100 91 85 4 0 5 0 0 5 0 0 0 0 0 0 2 5 56 100 83 99 100 100 98 95 64 77 20 88 99 100 100 100 100 100 100 98 31 25 7 24 100 100
100 100 97 18 7 5 0 0 0 0 0 0 0 0 0 1 22 10 94 58 97 100 100 100 95 97 99 23 18 99 100 97 100 100 100 100 100 100 93 100 16 5 100
87 100 61 5 17 6 5 2 3 0 0 0 1 0 2 5 66 86 100 100 100 100 100 100 100 100 100 100 100 84 98 99 100 100 100 100 83 98 100 22 80 93 27
80 92 98 97 99 83 81 10 36 32 5 5 44 83 100 8 79 94 67 100 100 100 100 100 100 100 100 100 97 100 100 100 100 95 100 38 98 100 86 100 100 100 99
100 100 100 100 100 100 100 100 96 19 55 87 93 58 46 16 60 100 100 100 100 100 100 100 100 100 100 99 100 95 98 100 100 100 100 100 100 100 100 92 100 100 100
99 100 100 98 100 100 100 100 94 14 76 100 100 100 100 94 33 10 97 100 100 100 100 100 100 100 100 60 76 94 83 44 87 97 97 97 100 100 97 88 100 100 91
65 100 100 100 100 96 100 100 94 90 100 100 100 93 100 100 83 8 28 69 100 99 100 93 29 100 100 34 58 76 97 71 40 26 76 53 100 99 92 46 100 99 100
24 54 54 100 88 2 0 34 31 100 73 26 100 100 99 100 97 28 48 11 24 8 4 6 84 100 100 100 68 98 100 79 94 90 72 39 100 100 96 78 78 97 100
6 8 5 5 2 0 0 0 2 5 57 88 100 100 97 61 86 5 80 100 84 10 8 8 91 100 100 100 100 94 100 100 100 100 100 79 99 99 100 100 100 93 99
0 0 2 2 0 0 0 0 0 0 0 8 93 56 85 100 97 60 9 40 5 29 14 32 5 52 100 100 95 100 100 100 100 100 100 100 100 100 100 100 100 100 100